GFSNGP_con_lsi_000.txt.gz
Lid_Strength_Index
13 13 13 14 13 12 13 14 15 15 15 13 11 11 11 10 11 11 11 11 11 12 13 12 11 12 12 12 12 12 12 12 11 11 11 10 10 10 9 9 7 8 7 8
15 13 13 14 13 13 13 13 13 14 13 10 10 10 10 10 11 11 11 11 11 12 12 12 12 12 12 12 12 12 12 12 11 10 10 10 10 10 9 7 8 9 9 8
19 15 16 18 14 13 13 13 12 15 12 11 11 10 10 10 10 11 11 10 11 11 12 12 12 12 13 13 12 12 12 12 11 10 10 10 10 10 9 8 8 8 8 8
20 19 22 14 12 11 12 11 11 11 11 10 10 10 10 10 10 11 11 11 11 12 13 13 13 13 13 13 13 13 12 12 11 11 11 10 10 9 8 7 7 9 8 8
20 21 17 15 11 11 12 12 10 11 11 10 10 10 10 9 10 10 11 11 11 11 13 13 13 13 13 13 13 13 12 12 11 10 11 10 9 9 8 7 8 8 7 8
22 22 23 15 12 10 10 15 9 10 11 11 11 15 10 10 9 10 10 11 12 13 13 14 14 13 13 13 13 13 12 11 11 10 10 10 9 9 8 9 8 8 8 9
23 23 18 13 10 9 15 14 9 9 10 11 11 10 10 10 10 10 11 12 12 12 13 13 13 13 13 13 13 12 11 11 10 10 10 9 9 9 9 9 9 9 9 10
20 23 19 11 10 12 10 11 9 9 9 9 10 10 10 9 11 13 13 12 12 13 13 13 13 13 13 13 12 11 11 11 11 10 9 8 9 10 9 10 10 11 14 13
15 16 12 10 10 9 9 10 9 9 9 8 10 9 8 12 12 13 12 13 13 13 12 12 12 12 13 12 11 11 11 11 10 9 9 8 9 10 10 10 12 12 11 14
13 11 10 9 9 8 8 8 8 8 8 8 9 9 12 13 13 13 13 13 13 13 13 13 12 12 12 11 11 11 11 10 9 9 8 8 8 8 9 12 13 10 12 12
12 10 10 8 8 7 7 7 8 7 7 8 9 12 12 12 13 13 13 12 13 13 13 13 12 12 11 11 11 11 10 9 9 9 9 8 8 8 8 9 9 11 12 12
13 9 10 9 8 7 7 7 7 8 9 11 11 12 12 13 12 12 13 13 13 13 13 12 12 12 12 11 10 10 9 8 8 7 6 7 8 7 6 6 6 6 6 12
9 9 9 9 8 7 7 7 7 9 11 12 11 11 12 12 12 12 13 12 13 13 12 12 12 12 11 10 10 9 8 7 7 7 6 7 9 9 10 9 6 5 5 6
7 8 9 9 8 8 7 9 10 11 11 12 12 11 12 12 12 12 12 12 12 12 12 12 12 11 10 9 9 8 7 7 7 8 8 7 8 9 10 13 13 13 9 6
7 7 8 8 10 12 11 11 12 12 12 12 11 11 12 13 13 12 12 12 12 12 12 11 11 10 9 9 8 7 6 7 8 8 13 12 11 11 10 11 11 13 14 12
9 8 9 12 12 12 12 12 12 13 12 11 11 12 12 12 12 12 11 12 13 13 11 14 13 10 9 8 7 6 6 7 8 8 9 12 12 10 10 11 10 12 14 14
10 12 12 13 12 11 11 12 12 11 10 11 12 13 12 13 14 13 13 14 15 15 13 13 11 9 8 8 7 6 5 6 8 11 9 7 9 11 11 12 10 11 13 16
10 10 10 10 11 11 12 11 11 11 12 12 13 15 16 17 14 14 15 16 17 14 12 11 10 9 8 7 6 7 6 6 7 7 8 8 8 9 12 12 12 11 11 16
10 10 10 10 10 10 11 12 13 13 14 15 15 15 15 15 16 14 16 17 16 14 10 10 9 10 7 6 7 6 6 6 7 8 8 10 14 12 12 14 13 12 11 12
10 10 11 13 13 13 13 13 13 12 12 14 15 16 15 14 17 17 15 12 11 10 10 10 10 10 8 6 7 6 5 5 6 8 9 12 13 13 13 13 12 11 11 11
12 13 14 13 13 14 14 13 14 13 13 16 15 14 15 13 14 9 10 10 9 11 10 11 10 9 7 6 6 5 4 4 5 7 8 8 8 9 9 9 9 9 9 9
12 13 14 14 15 14 14 15 13 13 14 15 15 14 14 12 11 12 9 7 6 9 10 11 10 10 8 6 6 5 4 4 5 5 6 6 6 7 7 7 7 7 7 8
11 12 13 14 14 13 13 14 15 15 14 13 12 12 13 10 11 10 8 8 8 10 10 10 8 7 6 7 5 5 4 4 4 4 5 6 5 6 6 6 6 6 6 6
11 11 12 14 14 13 11 9 10 11 13 12 12 12 12 11 9 9 7 7 8 6 6 6 6 6 8 6 6 5 5 5 5 5 6 6 5 6 6 6 7 6 6 6
12 11 12 12 11 10 10 9 10 10 9 8 7 7 8 10 7 6 5 6 7 6 6 7 7 6 9 10 12 10 9 8 8 8 7 6 6 6 6 7 7 7 6 6
10 10 10 10 10 10 10 9 9 8 8 8 7 6 6 8 9 9 7 7 7 6 6 6 11 12 13 15 17 17 16 14 15 16 16 15 14 13 11 10 7 6 6 6
9 10 10 10 10 10 11 11 11 10 9 8 8 7 7 7 6 6 5 5 5 6 9 11 13 14 16 16 16 17 17 17 18 17 18 18 17 17 17 16 15 13 8 6

GFSNGP_con_lsi_003.txt.gz
Lid_Strength_Index
12 12 11 11 11 11 12 11 13 11 12 10 9 8 8 8 9 9 9 9 9 10 10 10 10 9 9 9 9 8 9 9 9 8 8 8 7 7 7 6 5 6 5 6
13 12 12 12 11 11 11 11 12 11 11 8 8 8 9 9 9 9 8 8 9 9 10 10 10 9 9 9 9 9 9 9 9 8 8 7 7 7 6 6 5 6 5 5
15 14 14 14 12 11 11 10 9 12 9 8 9 9 8 8 8 8 8 8 9 9 10 10 9 9 9 9 9 9 10 9 9 8 8 7 7 7 6 6 4 4 5 5
14 16 16 11 10 10 11 10 10 10 9 8 8 8 7 7 7 8 8 8 8 8 9 10 9 9 9 9 10 10 10 9 9 8 8 7 7 7 6 5 4 4 5 5
15 16 14 12 12 10 11 10 8 9 9 9 9 8 7 7 6 6 6 7 8 8 9 10 10 9 10 10 10 10 10 9 8 8 8 7 7 6 5 5 4 4 5 5
16 16 17 12 11 8 8 13 8 8 9 9 8 11 8 6 6 7 7 7 8 9 11 11 10 10 10 10 10 10 9 8 8 7 7 7 7 5 5 5 6 5 6 6
18 15 14 11 9 8 13 11 8 8 8 9 8 7 6 7 7 7 8 11 11 11 11 10 10 10 10 10 10 9 8 8 8 7 7 7 6 5 6 6 6 6 7 7
17 16 15 10 8 11 8 7 7 7 7 7 6 8 8 8 9 10 11 11 10 10 10 10 10 10 10 10 9 8 8 8 8 7 7 6 6 6 6 6 6 7 7 7
12 12 9 8 7 6 7 7 6 6 6 6 7 8 8 10 11 11 11 11 10 10 11 11 10 10 10 9 9 9 9 8 8 7 6 6 6 6 7 6 6 6 7 7
11 9 9 8 7 6 6 6 6 6 5 6 6 7 9 11 12 11 11 11 11 11 12 11 10 10 10 9 9 9 9 9 8 7 7 6 6 6 6 6 6 6 6 6
10 8 8 7 6 5 5 6 6 5 5 6 7 9 11 11 12 12 12 11 11 12 11 11 10 10 9 9 9 9 9 8 8 7 6 6 6 5 6 5 5 5 5 6
11 7 7 7 6 6 6 6 5 6 7 8 9 10 11 12 11 10 10 12 12 11 11 11 10 10 9 9 9 9 9 8 7 7 6 6 5 5 6 5 6 6 6 6
7 7 7 6 6 5 6 5 5 6 8 10 11 11 11 11 11 11 12 11 11 11 11 10 10 10 10 10 9 9 8 7 6 6 6 6 5 5 5 5 6 5 4 4
6 6 6 6 6 6 7 10 10 10 11 11 10 10 11 11 11 11 11 11 11 11 11 10 10 11 10 9 8 8 7 7 6 6 5 5 4 4 5 5 5 5 5 6
6 6 6 9 10 11 11 10 11 11 10 10 10 10 11 11 12 12 11 11 11 11 10 10 10 10 9 8 7 6 6 5 5 5 5 6 6 5 5 5 5 5 5 6
10 11 11 12 12 11 11 11 12 12 11 10 10 10 10 11 11 11 11 10 12 11 10 11 12 9 8 7 6 5 5 5 5 5 5 5 5 5 5 4 4 5 5 5
8 11 12 12 12 12 11 10 11 11 10 9 9 10 11 11 12 11 11 12 12 12 11 12 10 8 7 6 6 5 5 5 6 5 5 4 5 5 4 4 5 5 5 4
10 10 10 10 11 11 11 10 10 10 9 9 12 12 12 12 11 12 12 12 13 13 12 10 8 7 7 5 5 5 6 5 5 5 5 5 4 4 4 5 5 5 5 4
9 10 9 9 9 9 9 10 11 11 12 12 12 11 12 12 12 12 12 13 13 11 8 7 8 7 6 6 6 5 5 6 5 5 5 5 5 4 5 5 5 5 5 5
9 9 10 11 12 12 12 12 11 11 11 11 12 12 12 12 13 13 11 11 9 7 7 7 7 6 6 6 6 5 5 5 5 5 4 5 5 5 5 6 5 5 5 5
12 12 12 12 12 12 12 12 12 11 12 13 13 12 12 11 10 11 8 8 6 6 6 7 6 5 5 5 5 5 5 5 5 5 5 4 5 5 5 4 4 4 4 4
10 11 12 13 14 12 12 12 11 11 11 12 12 12 12 10 9 9 9 7 4 7 5 5 5 5 5 6 5 5 5 5 5 5 5 4 4 4 4 4 4 4 4 4
10 10 11 12 12 11 11 11 12 11 12 11 10 9 9 8 7 8 7 4 5 4 5 4 5 6 6 5 5 5 5 5 5 5 4 4 4 4 4 4 4 4 4 4
9 10 11 12 12 10 11 10 10 9 9 8 7 7 8 8 8 6 5 6 5 5 5 4 4 4 5 4 4 4 5 6 7 8 7 7 6 6 5 5 5 5 5 5
10 10 10 10 11 11 11 11 10 10 9 9 8 8 7 7 8 7 6 6 6 5 5 5 4 4 5 6 7 9 9 11 12 12 12 12 12 12 12 11 12 11 10 8
10 10 10 10 11 12 12 13 13 12 12 11 10 9 8 8 7 7 6 6 5 5 4 7 8 9 9 10 11 12 13 13 14 14 14 14 14 13 13 14 14 13 13 13
11 12 12 12 13 14 15 15 15 15 13 13 13 11 11 10 9 9 8 7 6 7 9 11 12 13 13 13 14 14 14 15 16 16 15 15 15 15 15 15 14 14 13 13

GFSNGP_con_lsi_006.txt.gz
Lid_Strength_Index
10 10 9 9 9 9 9 9 11 9 9 7 6 6 5 5 5 5 6 6 6 6 6 6 6 6 6 6 6 6 7 7 6 6 6 6 6 6 5 5 5 4 5 5
11 10 9 10 8 8 8 8 9 8 9 5 5 5 5 5 5 5 6 6 6 5 5 6 6 6 6 6 6 6 6 6 6 6 6 6 6 6 5 5 5 4 4 3
13 11 11 14 10 8 8 7 8 10 7 6 6 6 5 5 5 5 5 5 5 5 5 6 6 6 6 6 6 7 7 7 7 7 6 6 6 6 6 5 5 5 3 3
13 13 19 9 8 8 8 7 6 7 6 6 6 5 5 4 4 4 4 4 4 4 5 6 6 6 6 7 7 7 8 8 7 7 7 6 6 6 5 5 5 5 4 3
16 13 10 10 10 9 9 9 6 7 6 6 6 5 5 4 3 3 3 3 3 3 4 5 7 6 7 8 8 8 8 7 7 7 6 6 6 5 5 5 5 4 3 3
13 18 19 10 9 6 6 10 6 6 6 6 6 9 6 4 3 3 3 3 3 4 5 6 6 7 8 8 8 8 8 8 7 6 6 6 6 5 5 5 4 4 4 3
13 16 11 8 7 6 12 10 6 5 6 6 7 5 4 3 3 2 3 3 4 6 6 7 7 7 9 8 8 8 8 7 7 7 6 6 5 5 4 4 4 4 5 4
13 17 17 7 7 10 6 5 5 5 5 5 4 4 4 4 4 4 4 5 6 7 8 9 8 8 8 9 8 8 7 7 7 6 6 6 6 5 4 4 5 5 5 4
10 9 6 6 5 4 4 5 5 4 4 4 4 4 4 5 6 6 6 7 8 9 9 9 8 9 9 9 8 8 7 7 7 7 7 6 6 5 5 4 5 4 4 4
9 7 6 6 4 4 4 4 3 3 3 4 4 4 4 5 7 7 8 9 9 10 11 11 10 9 9 8 8 8 8 8 8 8 8 6 5 5 4 4 4 4 4 4
8 6 5 5 4 4 4 3 3 3 3 4 4 4 4 6 8 8 10 10 10 10 10 10 9 9 9 9 9 9 8 8 8 8 8 8 6 4 4 3 3 3 3 3
9 5 6 5 4 4 4 4 4 4 4 4 4 5 6 8 9 8 9 11 11 10 11 11 10 10 9 9 9 9 9 9 8 7 6 6 6 5 6 6 6 6 5 4
6 4 5 4 3 3 4 4 4 5 5 7 7 8 9 9 10 11 10 10 10 11 10 10 10 10 9 9 9 9 9 8 7 6 5 5 4 5 5 5 5 5 5 5
4 4 6 5 6 6 7 8 8 7 7 8 8 8 9 11 11 11 10 10 10 10 10 10 10 10 9 9 8 9 8 9 5 4 3 4 4 4 4 4 4 3 4 4
6 5 5 7 8 9 8 7 8 10 10 10 10 10 10 10 9 9 9 9 10 9 9 9 9 9 8 8 8 8 6 4 4 3 3 3 3 3 3 4 4 4 3 4
8 7 8 10 10 10 10 10 11 11 10 10 10 9 8 8 9 9 9 9 10 9 9 9 9 8 7 7 6 5 4 5 5 4 5 4 3 3 4 3 3 3 4 3
7 9 10 10 10 10 10 10 10 10 9 8 8 7 7 8 10 9 9 8 9 10 9 9 9 6 6 4 4 3 3 3 5 4 4 5 3 4 3 3 3 3 2 2
8 8 8 9 10 9 9 8 8 8 8 8 11 11 11 11 10 9 9 9 10 10 9 8 6 5 4 3 3 3 3 3 3 4 4 4 4 3 3 3 2 3 2 2
8 8 8 8 7 8 8 9 10 10 10 10 10 10 10 10 9 9 10 10 10 9 5 4 6 6 5 4 4 2 3 3 4 4 4 4 4 4 4 3 3 3 2 2
8 8 9 10 10 10 9 9 9 8 8 9 10 9 9 8 9 9 8 8 6 4 4 4 4 4 4 3 5 3 3 4 4 4 4 3 4 5 5 4 3 3 3 3
10 10 10 10 9 9 10 9 9 9 8 9 10 9 9 8 7 7 6 5 3 3 4 5 4 3 2 3 3 3 3 4 4 4 4 4 5 5 5 4 4 3 3 3
8 8 9 8 8 8 9 8 8 8 8 9 9 8 8 8 8 7 6 6 4 6 5 5 4 4 3 4 3 3 3 4 4 4 4 4 4 4 4 4 4 4 3 3
7 7 8 9 9 8 9 9 9 9 9 9 9 8 8 8 8 9 9 6 7 7 6 6 5 5 5 4 4 4 4 4 4 4 5 5 4 4 4 4 4 4 4 3
8 8 9 9 10 10 10 10 9 9 9 8 8 8 8 8 7 6 6 7 7 7 6 5 5 5 5 5 4 4 4 5 5 6 7 8 7 7 7 7 7 7 7 6
10 10 10 10 10 10 11 10 10 9 10 10 10 9 9 9 9 8 7 7 8 7 6 6 7 7 7 7 7 6 6 8 9 8 9 9 9 10 9 9 9 9 9 9
10 10 10 11 11 11 11 11 11 11 11 11 11 10 10 9 9 9 9 9 9 9 10 10 11 10 10 10 11 11 9 9 10 10 11 11 11 11 11 11 11 10 10 9
12 12 11 11 11 12 12 13 13 13 12 12 13 11 11 11 11 11 12 11 11 11 11 12 12 13 13 12 13 12 12 11 13 13 12 13 13 13 13 13 12 11 11 10

GFSNGP_con_lsi_009.txt.gz
Lid_Strength_Index
8 8 9 8 8 8 9 9 11 9 9 7 6 6 5 4 4 4 4 4 3 3 3 3 4 5 5 4 5 6 6 6 5 5 5 5 6 6 6 6 5 5 5 5
11 8 8 9 8 8 8 8 8 8 8 5 5 4 5 4 4 4 4 4 3 3 3 4 4 5 4 5 6 6 6 6 5 5 6 6 6 6 6 6 6 5 5 5
12 10 10 14 10 8 8 7 7 9 7 5 6 5 5 4 4 4 4 4 3 3 3 3 4 4 4 5 5 6 6 6 6 6 7 6 6 6 6 6 5 5 5 5
12 13 19 9 6 7 7 7 6 6 6 5 5 4 4 3 4 4 4 3 3 2 2 2 3 4 4 5 6 6 6 7 7 7 7 7 6 6 6 6 6 6 6 5
16 12 10 9 8 8 8 8 6 6 6 5 5 5 5 3 3 3 3 2 2 2 2 2 3 4 5 6 6 7 7 7 7 7 7 7 7 7 6 6 6 6 5 6
12 17 19 9 7 5 6 10 6 6 6 6 5 8 6 3 3 3 2 2 2 2 1 2 4 5 5 7 7 7 7 7 7 7 7 7 7 7 6 6 6 6 5 5
13 15 11 7 6 5 11 10 5 5 5 5 6 5 4 3 3 2 2 2 2 2 2 3 4 5 6 6 8 7 8 8 8 7 7 7 7 6 6 6 5 5 5 5
13 16 17 6 6 10 7 4 4 4 4 4 4 4 3 3 3 3 3 2 2 3 4 5 6 6 7 8 7 8 8 8 8 8 8 7 7 7 6 6 5 5 6 5
9 9 5 5 5 4 4 4 4 4 4 4 4 4 3 3 3 4 3 3 4 6 8 8 7 7 8 9 8 8 8 8 8 8 7 7 7 7 6 5 6 5 5 5
9 6 5 5 4 4 3 4 3 3 3 3 4 4 4 3 3 5 4 6 7 8 9 9 8 8 8 8 8 9 9 9 8 8 8 8 7 6 6 5 4 5 5 5
8 6 5 5 4 4 3 3 3 3 3 3 4 4 3 3 5 6 8 9 8 8 9 9 9 9 9 9 8 9 10 9 8 8 8 7 6 6 4 3 4 3 4 3
9 5 6 5 4 3 4 4 4 4 4 4 4 4 4 6 7 8 9 10 10 10 9 9 9 9 9 8 9 10 9 8 8 7 7 5 5 5 4 5 5 6 6 4
6 4 4 4 3 4 5 5 5 6 6 7 7 6 7 9 9 10 10 9 9 9 9 9 9 9 8 8 8 9 9 8 8 7 5 4 5 5 5 3 5 6 5 5
4 4 5 5 6 5 6 6 6 6 7 8 9 9 10 10 10 10 9 9 8 8 8 8 8 8 7 7 8 8 8 9 5 4 4 3 3 4 4 4 4 3 5 5
5 4 5 6 6 7 7 7 9 10 10 10 9 8 8 9 9 8 7 7 7 8 8 7 7 7 6 7 7 6 5 4 3 3 3 4 3 3 3 4 5 4 3 5
6 6 6 7 8 8 9 9 10 10 9 8 8 8 8 8 7 7 7 7 8 8 7 8 8 7 6 5 4 3 3 5 5 4 4 4 4 4 3 3 3 3 3 3
7 8 8 9 9 9 10 9 8 8 8 8 8 9 8 7 8 7 7 6 7 9 8 8 7 5 4 3 3 3 2 2 5 4 3 4 4 4 3 3 3 3 3 2
6 7 7 8 9 9 9 8 9 9 9 9 10 10 10 10 9 8 7 7 8 8 6 5 4 4 3 2 2 2 2 2 3 3 3 3 3 3 3 3 3 3 3 2
7 8 8 8 8 9 10 10 10 10 10 10 10 10 9 9 8 7 7 8 8 7 4 3 6 5 3 4 4 2 3 3 3 3 3 4 3 3 3 3 3 3 3 3
8 9 9 10 10 10 10 10 9 7 7 8 9 9 9 8 8 8 7 7 5 3 3 4 5 4 3 3 5 3 3 3 3 3 3 3 3 4 3 3 4 4 4 4
9 10 10 11 11 10 9 9 9 9 8 9 9 9 9 8 8 8 7 8 6 5 6 7 6 5 5 5 5 4 4 4 4 4 4 4 4 4 4 3 4 4 4 4
8 10 10 8 9 9 10 9 9 9 9 9 9 9 9 8 7 6 6 7 5 7 6 7 6 6 6 6 5 5 5 4 4 4 4 4 3 4 4 4 4 4 4 4
7 8 9 9 9 9 9 10 9 9 10 10 9 9 9 8 7 8 9 7 7 7 7 7 7 8 8 6 5 5 5 5 5 4 4 4 4 4 5 5 5 5 5 5
8 9 9 9 9 9 10 10 10 10 10 9 8 9 9 9 9 8 8 8 9 9 9 9 10 11 9 7 8 9 9 9 8 6 6 6 6 6 6 6 7 7 7 7
9 9 9 9 9 9 10 10 10 9 10 9 9 9 9 9 10 9 9 10 10 10 10 11 12 12 10 10 10 10 10 10 10 10 9 9 8 8 8 8 8 8 8 8
8 8 10 10 10 10 10 10 10 10 10 10 10 10 9 9 10 10 11 11 11 11 11 11 12 12 12 12 12 12 12 12 13 12 11 11 11 10 10 10 10 10 10 10
11 10 9 9 10 10 11 11 11 11 11 12 12 10 10 11 11 11 12 12 12 12 12 12 11 12 13 13 13 13 13 13 13 14 13 13 12 12 12 12 11 11 11 10

GFSNGP_con_lsi_012.txt.gz
Lid_Strength_Index
8 8 8 9 9 8 9 9 12 10 9 8 6 6 5 4 4 4 4 4 4 4 3 3 3 3 4 4 4 5 6 6 6 6 6 6 6 6 6 7 7 7 7 6
11 9 9 10 9 8 8 8 9 9 9 6 5 5 5 5 5 5 4 4 4 3 3 3 3 3 4 4 5 5 6 6 5 6 6 7 6 6 6 7 7 8 8 7
14 10 11 14 11 9 8 7 8 10 8 6 6 6 5 5 4 4 4 4 4 3 3 3 3 3 3 4 4 5 6 6 6 6 7 7 7 7 7 8 7 7 7 8
15 13 18 9 6 7 8 7 7 7 6 6 6 5 4 4 4 4 3 3 3 3 3 2 2 2 3 3 5 6 6 6 7 7 7 7 7 7 7 7 7 8 7 7
17 15 11 9 8 8 8 9 6 7 6 5 5 5 5 4 3 4 3 3 3 2 2 2 2 2 4 5 6 6 7 8 7 7 8 8 8 8 8 8 7 7 6 7
14 17 19 10 7 5 6 11 6 6 6 6 5 11 7 4 3 3 3 2 2 2 2 2 2 3 5 6 7 7 7 7 8 7 8 9 9 8 8 7 6 6 7 7
14 16 13 7 6 5 12 12 5 5 5 5 7 6 4 3 3 3 3 2 2 2 3 3 3 4 6 7 7 7 8 7 7 8 8 8 8 7 7 7 7 8 9 7
14 17 18 5 6 10 8 4 5 5 5 5 5 4 4 4 3 3 3 3 2 6 8 7 6 6 7 8 8 8 8 7 8 8 8 8 8 8 7 8 8 8 7 7
11 12 6 4 5 4 3 4 4 4 4 4 5 4 4 4 3 4 4 5 7 8 9 8 8 8 9 9 7 7 8 8 8 8 8 8 9 8 8 7 7 7 7 7
9 6 6 5 4 3 4 4 4 4 4 4 5 4 4 4 5 8 8 8 8 9 9 9 8 8 8 7 8 8 9 9 8 9 9 8 8 8 8 7 6 6 6 7
8 6 5 5 4 4 4 4 4 4 4 5 4 4 4 6 8 9 8 8 8 9 9 9 9 9 8 8 8 9 9 9 9 9 8 8 8 7 7 5 6 6 6 6
11 6 6 6 4 4 4 5 5 4 6 6 6 6 7 8 8 9 9 9 9 9 9 9 8 8 7 7 8 8 9 9 8 8 8 7 6 5 5 5 4 4 5 6
6 5 5 4 4 5 5 5 6 6 6 7 7 8 8 10 10 10 9 9 9 9 8 8 7 8 7 7 7 8 9 9 9 9 6 6 6 6 7 5 4 4 5 5
4 4 6 5 7 5 6 7 7 8 8 8 9 9 10 10 9 9 9 8 8 8 7 7 7 7 6 6 6 8 8 8 7 6 5 6 6 6 5 6 5 5 5 5
5 4 5 6 6 7 7 8 9 10 9 9 8 8 8 9 9 9 8 7 7 7 7 7 7 6 5 5 5 6 6 5 5 5 6 6 6 6 6 6 5 5 4 5
6 5 6 7 8 8 9 9 10 10 9 9 9 9 9 8 8 8 7 7 8 8 7 9 9 6 5 4 4 4 4 6 6 5 5 5 5 6 6 5 5 4 4 4
7 8 8 9 9 10 10 9 9 9 10 10 11 12 11 10 9 8 8 8 9 9 9 8 7 4 5 3 3 4 4 4 5 5 5 5 5 5 5 5 5 5 4 4
6 7 8 9 9 9 10 10 10 10 12 11 13 12 11 11 11 10 9 9 9 8 8 6 6 5 4 3 4 4 5 4 4 4 4 5 5 4 4 4 4 5 5 5
8 8 8 9 9 10 11 11 12 12 12 12 11 11 10 10 10 10 9 9 8 8 7 6 7 7 6 6 6 5 5 5 5 5 4 4 4 4 4 4 4 4 4 5
9 10 10 11 11 11 12 12 11 10 11 11 10 10 11 12 11 12 10 9 8 7 7 7 7 7 7 7 7 7 7 7 7 6 6 5 4 4 4 4 4 4 3 4
10 11 12 13 13 12 12 12 11 11 10 11 12 13 13 11 10 11 9 9 8 8 8 9 8 9 9 10 9 8 8 7 7 6 6 6 5 4 4 4 4 4 3 4
10 12 12 12 13 13 12 11 10 11 11 12 13 14 13 11 11 10 10 9 9 10 10 9 10 13 12 12 9 9 9 10 9 7 6 5 4 4 4 5 4 4 3 3
10 12 12 12 12 11 11 10 11 12 13 13 13 12 11 11 10 11 11 9 9 11 10 10 13 14 14 11 11 11 11 12 12 11 10 9 9 8 7 7 7 6 6 6
11 12 12 10 10 10 11 11 10 10 12 11 12 12 11 11 10 9 10 11 12 12 12 11 13 14 13 12 13 13 13 13 14 13 12 12 11 11 10 10 10 9 9 9
10 10 9 9 9 10 11 11 10 10 11 10 10 10 10 9 11 11 11 11 12 12 12 12 13 14 13 13 13 13 14 13 15 14 14 14 13 13 13 12 12 12 11 11
8 9 11 11 11 11 12 11 11 11 11 11 11 10 9 10 10 11 11 12 12 12 13 12 13 13 14 14 14 14 14 15 15 16 15 15 14 14 14 14 13 13 12 12
11 10 10 11 11 11 12 11 11 12 11 12 13 11 10 11 11 12 13 13 13 13 13 13 13 14 14 14 14 15 15 16 16 16 16 16 16 16 15 14 13 13 13 12

GFSNGP_con_lsi_015.txt.gz
Lid_Strength_Index
10 10 9 10 10 10 11 11 14 12 11 9 9 9 9 7 7 7 7 7 6 6 6 5 5 5 5 6 7 7 8 8 7 6 6 7 7 8 8 8 8 8 8 8
14 10 10 11 10 10 10 10 11 11 11 9 8 8 8 7 7 7 7 6 5 5 5 5 5 5 5 6 7 7 8 7 6 6 7 7 8 8 8 7 8 8 9 8
17 12 12 16 12 10 10 9 10 13 10 8 8 8 8 8 7 6 6 6 5 5 5 5 5 5 6 7 7 8 8 7 7 7 8 8 8 7 8 8 8 8 8 8
16 16 21 11 8 9 9 9 9 9 9 8 9 8 6 6 7 6 5 5 5 5 4 5 5 5 6 6 7 8 7 8 8 8 8 8 7 8 8 8 8 8 8 8
17 17 13 11 9 9 10 11 8 9 8 8 7 8 7 5 5 6 6 6 5 5 4 4 5 5 6 7 8 8 8 8 8 8 8 8 8 9 8 8 8 8 8 8
16 18 20 12 8 7 7 14 7 7 8 7 8 13 9 5 5 5 5 5 6 7 7 5 5 6 7 8 8 9 9 8 8 8 8 8 9 8 9 9 8 8 8 8
18 19 14 9 7 7 14 13 7 7 7 7 9 8 6 5 5 5 7 8 9 9 9 9 7 8 9 9 9 8 7 8 8 7 7 8 8 9 9 9 9 9 10 9
15 17 18 7 8 12 9 7 7 7 7 7 6 6 5 5 6 7 9 10 9 10 10 9 9 9 9 9 9 9 8 8 7 7 7 8 9 9 9 9 10 10 9 8
13 13 8 7 7 6 6 7 7 7 6 5 6 6 6 10 9 10 10 10 9 10 10 9 9 9 9 9 8 8 7 7 7 8 8 8 9 9 9 10 11 8 8 8
12 9 8 7 7 6 5 5 5 6 6 6 6 7 10 10 10 10 10 10 9 10 11 10 9 9 8 8 8 8 8 8 8 8 8 8 8 8 9 10 9 8 8 8
10 8 7 7 6 5 5 5 6 7 8 8 9 9 9 10 10 10 10 10 10 10 10 10 10 10 9 9 8 8 8 8 8 9 8 8 8 8 8 7 7 9 9 8
14 8 8 7 6 6 7 7 7 8 9 8 9 10 10 10 10 10 10 10 10 10 11 10 10 10 9 8 8 9 9 9 10 10 9 8 8 7 6 6 6 5 5 7
8 6 7 7 8 7 8 8 8 8 9 10 10 10 10 11 11 11 11 11 10 10 10 11 10 9 8 8 8 9 10 10 10 9 9 9 8 8 9 8 6 5 5 5
6 7 8 7 9 8 9 9 9 9 9 10 10 11 11 12 11 11 10 10 10 10 10 9 9 9 8 8 8 9 9 9 9 9 8 7 7 8 10 10 9 8 6 5
7 7 8 9 9 9 9 9 10 11 10 10 10 10 10 10 10 10 10 10 10 10 9 9 10 10 8 7 7 8 8 9 8 7 7 7 8 8 6 6 7 7 7 8
8 8 9 10 10 9 10 10 11 11 11 11 12 12 12 11 11 11 11 11 12 12 11 11 11 9 7 7 7 7 7 8 8 7 7 7 6 6 6 6 7 8 7 6
11 11 10 10 10 10 10 10 10 12 12 14 14 14 13 14 13 13 12 11 11 11 10 10 10 8 7 6 6 7 7 7 7 6 6 6 6 5 6 6 7 7 7 6
8 8 9 9 10 11 12 12 14 14 14 13 13 13 13 14 14 13 13 12 10 10 10 10 10 10 9 8 8 8 8 8 9 9 8 8 7 6 6 5 5 5 4 4
8 9 9 10 10 12 13 14 14 14 14 13 14 14 16 16 14 13 13 15 13 13 12 11 11 11 11 10 11 11 11 11 10 10 9 9 8 8 7 6 5 4 4 4
10 11 11 12 12 13 13 13 13 13 13 15 17 17 16 16 16 17 15 14 12 12 12 12 12 13 12 12 13 11 11 11 11 11 11 11 9 7 6 6 5 4 3 3
13 13 13 13 14 13 13 13 15 15 14 17 17 18 18 16 16 18 15 14 13 13 12 12 13 14 13 14 12 13 13 14 14 14 13 13 12 11 9 8 6 5 5 6
12 13 14 14 14 14 14 15 15 16 16 17 19 19 19 14 17 15 17 14 12 16 13 12 13 17 15 15 14 15 15 16 16 16 15 14 14 13 12 12 11 11 10 8
12 13 13 14 15 14 15 16 16 16 17 18 18 18 17 14 14 15 15 12 12 14 13 13 18 19 19 16 16 17 16 17 18 17 16 15 15 14 15 15 14 13 12 11
13 13 13 13 15 15 14 13 12 13 17 15 18 20 15 18 19 13 14 16 19 19 18 16 16 19 21 21 17 17 17 17 17 18 17 16 16 16 16 16 15 14 13 13
13 13 14 14 14 14 13 13 13 13 13 13 13 12 12 13 17 17 18 18 16 17 20 20 19 20 22 23 20 17 17 19 17 19 18 18 17 18 17 16 16 15 14 13
13 14 14 13 13 14 14 14 15 15 14 17 17 19 17 17 16 16 18 18 18 18 20 22 22 20 20 21 21 23 19 19 18 19 21 20 20 20 19 18 17 16 15 14
12 12 13 14 13 14 15 15 17 19 18 21 20 20 15 18 20 19 21 22 22 22 23 22 23 21 18 21 23 23 23 22 20 20 25 22 21 20 19 19 18 17 16 16

GFSNGP_con_lsi_018.txt.gz
Lid_Strength_Index
11 10 10 11 11 11 12 13 14 12 12 10 9 10 9 8 8 7 7 7 8 8 8 7 7 6 6 8 7 7 8 8 8 7 6 7 9 9 9 9 9 8 9 8
13 11 11 12 11 11 11 11 12 12 12 10 9 9 9 8 8 8 8 7 6 5 5 6 6 6 6 7 7 7 8 8 7 6 7 8 9 9 9 8 8 8 8 8
16 13 13 16 12 11 11 11 11 14 12 10 9 8 9 9 8 8 7 7 6 5 5 6 6 6 6 6 7 8 8 7 7 8 8 8 8 9 8 8 7 7 8 8
17 16 20 11 9 9 10 10 10 10 10 9 8 8 8 8 8 8 7 7 7 6 5 5 5 5 6 7 8 9 9 8 8 8 8 8 8 8 8 8 8 9 9 8
18 18 14 11 10 11 11 12 9 10 9 9 8 8 8 7 7 7 7 7 8 8 8 6 5 6 8 9 10 10 9 9 8 8 8 8 9 8 8 8 9 9 8 8
17 19 20 13 9 8 9 14 8 8 8 8 9 13 9 6 6 8 9 9 9 9 9 9 9 8 9 10 10 10 9 9 8 9 8 9 9 8 8 9 9 8 8 8
21 20 15 10 8 8 15 14 8 8 8 8 9 9 7 8 9 10 9 10 9 10 10 10 9 8 9 9 9 9 9 8 8 8 7 7 7 8 8 9 9 9 9 9
15 18 17 7 9 12 11 8 8 8 7 7 7 8 9 10 10 11 10 10 10 10 11 10 9 9 9 10 9 8 8 7 7 6 7 7 9 8 9 9 10 10 10 9
13 13 8 8 8 6 7 8 8 7 6 6 7 10 10 11 11 10 10 10 10 10 10 10 9 9 10 10 8 8 8 8 7 7 7 7 8 9 9 9 11 10 10 11
11 10 9 8 6 6 6 6 7 7 6 7 10 11 11 11 11 10 10 11 11 11 11 11 10 9 10 9 9 10 10 9 9 9 9 8 9 8 9 10 11 9 9 9
12 9 8 7 6 7 8 8 8 8 9 10 10 11 11 11 11 11 11 11 11 12 12 11 10 11 10 10 10 11 10 9 9 11 10 10 9 9 9 8 8 8 8 9
14 8 8 8 8 7 8 9 9 10 10 10 10 11 11 11 10 11 12 11 12 12 11 11 11 11 11 10 10 10 10 10 11 12 11 10 9 8 6 6 6 6 6 7
8 7 8 9 9 8 10 10 10 10 11 11 11 11 11 11 12 11 12 12 12 11 12 12 12 12 11 10 10 10 10 10 11 11 11 10 9 9 8 6 6 6 5 5
8 8 9 9 11 10 10 10 10 11 11 11 11 11 12 12 12 12 12 12 12 12 12 13 12 12 11 9 9 10 10 10 11 10 9 9 8 8 8 7 7 6 7 5
9 8 9 10 10 10 10 11 12 12 12 12 11 12 12 12 13 13 13 13 13 13 13 13 13 12 9 8 9 9 9 10 9 9 8 7 6 6 6 6 6 6 6 8
9 9 10 11 10 11 12 12 12 13 13 13 13 13 13 12 13 13 13 13 13 14 13 14 13 11 10 10 11 11 11 11 11 10 9 9 8 8 7 7 6 6 6 6
11 12 11 11 11 11 12 12 12 13 13 14 14 14 14 14 14 14 14 13 13 14 14 14 13 11 11 12 13 13 13 12 12 10 10 10 10 10 9 9 9 8 7 5
9 9 10 11 12 13 14 13 14 14 14 13 14 16 17 17 16 16 16 16 15 16 14 13 13 14 14 13 13 13 12 12 11 11 11 12 11 11 11 10 9 8 8 7
10 11 11 11 12 13 14 14 14 14 14 15 17 17 18 18 17 16 16 17 17 16 14 14 14 15 14 14 13 12 13 14 14 14 14 14 14 13 12 12 12 11 9 7
11 12 12 13 13 13 14 14 14 14 15 16 18 18 17 19 20 18 16 16 15 15 13 15 15 15 14 13 15 14 14 17 17 16 16 16 16 15 14 14 14 13 13 11
13 14 14 14 14 14 14 15 15 16 16 18 19 21 21 18 18 19 16 15 15 15 14 15 15 15 14 15 15 19 17 20 19 19 18 18 17 17 17 16 15 15 14 14
14 14 14 14 15 15 15 15 16 17 18 20 22 21 19 15 17 16 19 16 14 19 15 14 15 20 17 19 16 21 18 18 21 20 19 19 18 18 18 17 17 16 15 15
14 14 14 15 15 15 16 17 17 18 19 20 21 19 16 15 15 19 19 14 14 17 14 17 20 22 22 24 24 24 25 23 22 21 20 20 19 19 19 18 18 17 16 16
13 14 14 15 15 16 16 16 15 16 18 16 19 20 15 19 21 15 16 19 22 22 22 22 22 22 24 26 26 26 25 26 22 26 22 23 20 21 20 19 19 18 18 17
13 13 15 15 15 16 15 15 15 14 14 15 15 14 14 15 19 19 21 21 19 20 23 24 22 23 26 28 28 28 28 28 25 25 27 24 22 22 22 21 21 20 19 18
14 15 16 15 16 15 15 15 16 16 16 19 19 24 19 17 18 19 21 22 21 21 24 27 27 27 27 25 27 28 27 26 26 24 29 26 24 23 23 22 21 20 20 19
15 15 15 15 15 15 15 16 18 18 20 22 21 21 19 22 24 22 26 26 25 26 27 27 28 27 26 24 23 26 27 28 27 26 30 30 27 25 23 22 21 20 19 18

GFSNGP_con_lsi_021.txt.gz
Lid_Strength_Index
12 11 11 11 12 12 13 13 15 14 13 11 11 10 10 9 9 7 7 7 8 8 9 8 8 7 7 8 9 8 8 9 9 8 8 8 8 8 8 8 9 9 8 8
14 12 12 13 11 11 12 12 13 13 13 11 10 10 10 9 9 9 8 8 8 7 7 7 7 7 8 8 8 8 9 9 8 8 7 8 9 8 8 8 8 8 8 8
16 14 14 16 13 11 11 11 11 14 12 11 10 10 10 9 8 9 8 8 7 6 5 6 6 6 6 7 7 8 9 8 7 7 8 9 8 8 8 8 8 8 8 8
17 16 20 11 10 10 11 11 10 11 11 10 10 10 9 9 8 8 8 8 9 9 8 6 5 5 6 7 8 9 9 9 9 9 9 9 8 9 8 8 9 9 8 9
17 17 14 12 11 11 12 12 10 10 10 9 8 9 9 7 8 9 10 10 10 10 10 9 7 7 9 10 10 10 10 10 9 9 9 8 9 9 9 9 8 8 9 8
18 18 20 13 11 10 9 14 9 9 9 9 10 14 10 8 9 10 10 10 10 10 10 10 10 9 10 10 10 11 10 10 9 9 8 8 8 8 8 7 8 8 9 9
20 20 16 12 10 9 15 14 8 8 8 9 10 10 10 10 11 10 10 10 10 10 11 10 9 9 10 10 10 9 8 8 8 7 8 8 8 7 8 8 9 10 10 9
19 21 18 9 9 12 11 9 8 8 8 8 9 10 10 11 11 10 11 11 10 11 11 10 10 10 11 10 9 8 8 7 7 7 7 7 8 8 8 9 10 10 11 10
14 14 10 8 9 8 8 8 8 8 7 7 10 11 11 11 11 11 11 11 11 11 11 10 10 10 11 10 9 9 9 8 8 9 9 9 9 9 10 10 11 11 11 10
12 10 9 9 7 7 7 7 7 7 6 9 11 11 11 11 12 12 12 12 12 11 12 12 11 11 11 11 10 11 11 12 12 12 10 10 9 9 10 11 12 10 10 9
11 10 8 8 8 9 9 9 9 9 10 10 11 11 11 12 12 12 12 12 11 12 12 12 12 12 12 12 12 13 12 12 12 13 11 10 10 10 10 9 9 9 8 8
13 8 9 9 9 8 9 10 10 10 11 11 11 11 11 12 12 12 12 12 12 12 13 13 13 13 12 12 12 13 13 13 13 12 11 11 10 10 8 7 7 6 6 6
9 9 9 10 9 9 10 10 10 10 11 11 11 11 12 13 13 12 13 12 13 13 13 14 13 13 13 13 13 13 13 12 11 11 11 11 10 10 10 8 6 5 5 5
9 10 11 10 11 10 10 10 10 11 11 11 12 12 13 14 14 13 13 13 13 13 14 14 14 14 13 12 13 14 13 12 12 12 12 11 11 10 9 8 8 7 5 5
10 9 10 11 11 11 11 11 12 12 12 13 12 13 13 14 14 14 13 13 13 13 15 15 15 15 14 15 15 14 13 13 13 13 13 13 12 11 10 10 10 10 9 8
11 11 11 12 12 12 12 12 13 13 13 14 14 14 14 13 14 14 13 13 14 16 16 18 16 16 15 15 15 14 14 14 15 14 13 13 12 11 11 11 11 11 10 10
13 13 13 13 13 12 12 11 12 14 14 15 15 15 14 15 15 15 14 15 17 17 16 18 18 17 15 15 14 15 15 15 15 14 14 13 13 13 12 13 13 13 13 12
10 11 11 12 12 13 14 14 14 14 15 14 16 17 17 17 17 17 16 16 18 18 17 18 17 16 15 15 15 15 16 17 16 16 15 15 15 14 15 15 15 15 14 13
11 11 11 12 12 13 14 14 14 15 16 16 16 17 18 18 17 18 18 20 21 19 17 17 16 16 16 16 16 16 16 19 18 17 17 18 18 17 16 17 17 16 15 15
12 13 13 13 13 14 15 15 15 15 16 17 18 19 18 19 19 19 19 20 19 17 16 17 17 17 17 16 18 16 18 22 19 19 19 19 20 19 18 19 18 18 17 16
14 14 14 15 15 14 14 15 17 17 16 18 18 19 19 19 20 21 19 19 17 16 15 17 17 17 16 18 16 23 22 23 24 22 23 22 22 20 20 20 20 19 18 17
14 15 15 15 16 16 16 17 17 18 18 20 21 20 20 19 20 20 21 18 16 20 17 17 17 21 19 21 18 24 22 22 23 26 25 24 23 22 22 21 21 20 19 18
14 14 14 15 16 16 16 17 18 18 20 20 20 19 19 18 18 20 19 16 16 19 17 21 22 24 25 27 27 29 28 28 27 27 29 29 27 25 24 23 22 21 21 21
14 14 15 16 17 16 17 17 16 18 19 19 21 21 17 20 21 17 17 21 23 25 24 25 25 25 27 29 29 30 30 31 31 30 29 28 30 28 27 25 23 23 23 23
15 15 16 16 16 16 16 16 16 16 17 16 16 15 16 16 19 19 22 22 20 21 24 27 25 26 30 31 31 31 31 32 32 32 33 33 29 28 28 26 25 24 24 23
15 16 16 16 16 16 16 16 17 17 18 20 20 21 20 19 19 20 22 23 22 23 25 30 30 30 30 28 28 31 31 30 32 31 32 32 30 29 28 26 26 25 25 24
16 16 16 17 16 16 17 17 17 18 19 20 20 19 20 21 22 22 26 27 27 29 29 30 31 29 29 31 29 27 29 31 31 30 34 34 32 32 30 28 26 26 25 25

GFSNGP_con_lsi_024.txt.gz
Lid_Strength_Index
12 11 11 12 12 12 13 13 15 14 14 12 11 11 11 10 9 7 7 7 7 7 7 7 7 8 8 9 9 9 9 8 9 9 8 9 10 9 9 9 9 9 9 8
14 12 12 13 12 12 13 13 13 14 14 11 12 11 11 10 9 9 8 8 8 8 8 7 7 6 6 7 7 8 8 9 9 9 9 10 10 9 10 9 9 9 9 8
15 15 14 16 13 12 12 12 12 14 12 11 12 11 11 10 9 9 10 10 9 9 8 7 6 6 6 6 7 8 8 8 9 10 10 10 9 9 9 9 8 8 8 8
18 17 20 12 11 11 11 11 11 11 11 10 10 11 10 10 10 10 10 10 11 11 10 9 7 7 7 7 8 9 9 10 10 10 10 9 9 9 9 8 8 8 8 8
17 18 15 13 12 12 12 12 10 11 10 10 9 9 9 10 10 11 11 11 12 11 11 10 10 10 10 10 10 9 10 10 10 9 9 9 9 9 8 8 9 9 8 8
18 19 20 13 11 10 11 15 10 9 10 9 10 15 11 11 11 11 11 11 11 11 10 11 11 10 11 11 11 11 10 10 9 8 8 8 8 8 8 8 8 9 9 8
21 20 16 12 11 10 15 13 10 9 9 10 11 11 11 11 11 11 11 11 11 11 11 11 11 10 11 10 10 9 9 9 8 8 8 8 8 8 9 9 9 10 10 10
19 20 18 11 11 13 11 10 9 9 9 9 10 11 11 11 11 11 12 11 11 12 12 12 11 10 11 11 10 9 9 9 8 8 8 8 9 9 11 12 12 11 12 10
14 14 11 10 11 10 9 9 9 9 8 9 11 12 11 12 12 12 12 12 12 12 12 12 11 11 11 11 10 10 11 11 11 11 11 12 12 13 13 13 14 12 11 11
13 11 10 10 9 8 8 9 8 8 8 9 11 11 12 12 12 12 13 13 12 12 13 14 13 12 12 12 12 13 13 13 13 13 13 13 13 13 13 13 12 11 11 10
13 11 9 8 8 9 9 9 9 10 10 11 11 11 12 12 12 13 13 13 13 13 14 14 13 13 13 13 13 13 13 13 14 14 14 13 13 13 12 11 10 10 10 10
12 9 9 9 9 9 10 10 10 11 11 11 11 12 12 13 12 12 13 13 14 14 15 14 14 14 13 13 14 14 14 14 15 15 15 14 13 13 10 9 8 7 7 7
9 8 10 10 10 10 11 11 10 11 11 12 11 11 12 13 13 12 13 14 14 15 14 15 15 15 15 14 14 15 15 15 15 15 15 14 14 14 15 12 10 9 8 7
10 9 11 11 12 11 11 11 10 11 11 11 12 12 13 13 13 14 14 14 14 15 15 16 16 16 16 16 16 16 16 16 17 16 16 15 16 15 14 14 15 14 10 9
11 10 10 11 12 12 11 11 12 13 13 13 13 13 12 13 14 14 14 14 16 16 16 17 17 17 17 16 17 17 17 17 17 17 17 16 16 15 15 14 13 13 13 12
12 11 11 13 13 13 13 13 14 14 13 13 13 13 13 13 14 14 14 15 17 18 18 20 19 17 17 17 17 17 18 18 18 17 17 17 16 16 15 15 15 15 15 15
13 14 13 14 14 14 14 13 13 14 13 13 14 14 14 14 15 16 17 17 18 19 18 19 19 17 17 17 18 18 19 18 19 18 18 17 18 17 16 16 17 17 17 16
10 11 11 12 13 14 14 14 14 13 14 14 15 16 16 16 16 17 18 18 19 19 19 19 18 18 18 18 18 18 20 20 19 19 18 19 19 18 18 18 19 19 18 17
11 12 12 13 13 14 14 14 14 15 16 16 16 17 17 17 17 18 19 20 20 19 19 18 18 19 19 18 19 19 20 23 21 20 20 21 21 20 20 21 20 20 20 18
13 13 13 14 14 14 15 15 16 16 16 17 17 17 18 19 20 20 20 20 19 18 18 19 19 19 19 18 20 19 21 25 22 22 24 22 26 26 24 23 21 22 21 20
14 14 15 15 15 15 16 16 16 17 17 17 18 18 19 19 20 21 20 20 19 18 18 19 19 19 18 20 19 26 26 27 27 27 30 29 30 27 28 27 25 24 23 22
15 15 16 16 17 17 17 17 17 17 18 19 19 20 20 20 21 21 22 19 18 21 19 19 18 23 21 22 20 27 24 26 26 28 30 30 31 31 29 30 27 25 24 23
15 15 15 16 17 18 18 18 18 18 19 19 20 19 19 18 19 20 20 18 18 21 18 21 22 25 26 29 30 30 30 31 31 30 33 35 34 34 31 28 27 26 25 25
15 16 16 16 17 17 18 18 18 19 19 19 20 20 19 21 22 18 19 22 24 26 25 26 22 23 27 30 31 32 32 33 34 34 32 33 36 35 32 32 29 26 26 26
16 16 16 16 17 17 17 17 18 17 17 17 17 17 18 18 21 21 23 22 21 22 24 27 26 27 31 32 32 33 33 35 35 35 36 37 35 34 33 32 30 28 27 27
16 17 17 16 17 17 17 17 18 18 19 20 19 21 21 20 20 20 23 23 22 23 24 29 31 32 33 31 32 32 31 31 34 33 35 36 36 33 34 31 30 29 28 27
17 17 18 18 18 18 17 17 18 19 19 19 19 20 21 21 23 21 26 27 28 30 30 30 32 31 31 33 33 31 29 32 33 31 36 38 37 37 35 33 31 30 29 28

GFSNGP_con_lsi_027.txt.gz
Lid_Strength_Index
11 10 10 10 10 10 11 11 13 11 12 9 8 8 8 8 6 6 6 5 5 4 4 4 4 5 5 5 6 5 5 5 5 5 6 7 8 8 8 8 8 8 8 7
12 11 11 11 10 10 10 11 10 10 11 8 8 9 8 8 6 7 7 7 7 6 6 5 4 4 4 4 4 4 4 4 5 5 7 8 8 8 9 8 8 7 8 7
14 12 11 14 12 10 10 10 9 12 9 8 9 9 9 8 8 8 9 8 8 8 7 5 5 4 3 3 4 4 4 5 5 6 7 8 8 9 9 8 8 7 6 7
15 14 18 10 9 9 9 9 9 9 9 8 8 8 7 7 7 9 9 9 9 8 8 8 7 6 6 5 5 6 6 7 7 7 7 8 8 8 8 7 7 7 7 6
16 15 13 11 10 10 10 10 8 9 9 8 7 7 8 9 8 9 9 10 9 9 9 8 8 7 7 7 7 8 8 8 8 7 7 7 7 8 7 7 7 7 6 7
15 16 18 11 9 9 8 12 8 9 9 9 8 10 8 9 9 10 10 9 9 9 8 8 8 8 8 8 8 9 8 8 7 7 7 7 7 7 7 6 7 8 9 9
16 15 13 10 9 9 13 11 8 8 7 7 8 8 8 9 10 10 10 10 9 9 9 9 8 8 8 8 9 8 7 7 7 6 6 6 7 8 8 9 9 9 9 8
14 16 16 9 10 11 8 8 7 7 6 7 9 10 9 10 10 10 10 9 9 9 9 9 8 8 8 9 8 8 8 8 8 8 9 9 9 9 9 9 9 9 10 9
12 13 7 9 7 7 7 7 8 6 6 8 9 10 10 10 10 10 10 10 9 9 10 10 9 9 10 11 10 10 10 11 10 10 10 10 10 10 10 9 10 10 10 10
10 9 9 8 8 7 7 6 6 5 6 8 9 9 10 10 10 10 10 10 10 11 11 12 11 11 11 11 11 11 12 12 12 12 12 11 11 11 11 11 11 11 11 11
10 10 8 7 7 6 7 6 7 7 7 8 9 10 10 11 11 10 11 11 11 12 12 12 12 13 13 12 12 13 13 13 13 13 13 13 13 13 13 12 12 12 12 11
11 8 7 7 6 7 7 7 8 9 9 9 9 10 10 11 11 11 12 12 12 12 13 14 14 14 14 14 14 14 15 15 15 14 14 14 14 14 14 14 13 12 12 11
8 8 9 9 8 8 8 8 9 9 9 10 10 10 10 11 11 12 12 12 13 14 14 14 15 16 16 15 15 15 16 16 15 15 15 15 15 15 16 14 13 13 12 12
9 9 9 10 9 9 9 10 10 10 10 10 10 10 11 12 12 13 13 13 14 15 15 15 16 17 16 16 16 16 16 17 16 16 16 16 16 16 16 16 16 14 13 13
10 10 9 10 11 11 11 11 12 12 12 11 11 12 12 13 13 14 14 15 15 15 16 17 17 17 16 16 17 17 17 17 17 17 17 17 17 16 16 16 15 15 14 13
11 11 11 12 12 12 12 12 12 12 12 12 12 13 13 13 14 15 15 15 16 17 18 19 18 17 17 16 17 17 18 19 18 18 18 18 17 17 16 16 16 16 15 15
13 14 13 13 13 13 12 12 12 13 13 13 14 14 13 15 15 16 17 17 18 19 18 18 18 17 18 18 18 18 19 19 20 19 18 18 18 17 17 16 17 16 16 15
10 11 11 12 13 13 14 13 13 13 14 14 14 14 15 16 17 17 18 18 19 19 19 19 18 18 18 19 19 19 20 20 19 19 19 19 19 18 17 17 17 17 17 17
11 12 13 13 13 14 14 14 15 15 16 15 15 16 16 17 17 18 18 19 19 19 19 19 19 19 19 19 19 20 21 21 20 19 19 20 19 19 19 18 18 18 18 18
14 14 14 14 14 15 16 16 15 16 16 16 17 17 18 19 19 19 18 18 18 18 19 19 19 20 20 20 20 20 20 20 20 20 20 20 20 21 20 20 20 20 19 19
15 15 15 15 16 15 15 15 15 17 16 16 17 18 18 19 19 19 20 20 19 18 19 19 20 20 20 19 19 20 20 20 20 20 21 21 21 21 21 21 21 21 20 19
15 16 16 16 16 16 16 16 17 17 18 18 19 19 19 20 20 20 19 19 18 19 19 19 19 21 20 20 19 19 19 20 19 20 21 21 21 22 22 22 22 21 21 20
15 15 16 16 17 17 17 18 18 18 19 19 19 18 18 18 18 19 20 19 18 20 19 19 21 23 23 19 19 19 19 20 20 20 21 21 22 22 23 23 23 22 22 21
16 16 17 17 17 17 18 18 18 18 18 18 19 19 19 20 20 19 19 20 21 19 19 20 20 22 23 19 19 19 20 20 20 20 21 25 22 23 23 24 24 23 22 22
16 16 16 17 18 18 18 17 17 18 18 18 18 18 18 19 18 19 19 19 19 19 19 23 23 23 19 19 19 20 20 20 20 21 21 22 23 24 24 24 24 24 23 23
17 18 18 17 17 17 17 17 18 18 18 18 19 19 19 19 19 19 19 19 19 20 18 19 20 20 20 20 20 20 20 20 20 21 23 22 23 24 24 25 25 24 24 23
18 18 19 19 18 18 18 17 18 18 18 17 18 19 19 19 19 19 20 19 19 19 19 19 20 20 20 20 20 20 20 20 22 21 22 23 24 24 25 25 25 24 24 24

GFSNGP_con_lsi_030.txt.gz
Lid_Strength_Index
8 8 8 8 9 8 9 9 11 9 9 7 6 6 5 5 4 5 5 4 4 4 3 3 2 2 2 2 2 2 2 2 1 1 1 2 3 3 4 5 7 8 8 7
10 8 8 9 8 8 8 8 8 8 9 6 5 5 6 6 5 5 5 4 4 3 4 4 3 2 2 2 2 2 1 1 1 2 2 3 5 6 7 8 7 8 7 7
12 10 10 13 10 8 8 7 8 10 7 5 6 6 5 5 5 5 5 5 5 4 3 3 2 2 2 2 2 2 2 2 2 3 4 4 5 6 7 8 8 8 7 6
12 13 19 9 7 7 8 7 6 7 6 5 5 5 5 4 4 5 5 6 5 5 5 4 3 3 3 3 3 3 3 4 4 4 5 6 6 7 8 7 7 6 6 6
16 14 10 9 8 8 9 9 6 6 6 5 5 6 6 4 4 5 5 5 5 4 4 5 5 4 4 4 4 4 5 5 5 5 5 6 6 6 6 6 6 6 7 6
13 15 17 9 6 5 6 11 5 5 6 6 6 9 6 6 6 6 6 5 5 5 5 5 5 4 4 5 5 5 5 5 5 5 6 6 6 6 6 6 6 7 7 8
13 14 11 7 6 5 12 10 5 5 5 5 7 5 5 6 6 6 6 6 6 5 6 5 4 4 5 5 6 5 5 5 6 6 6 6 7 8 9 9 9 8 7 6
12 15 16 6 7 9 6 5 5 5 4 5 5 5 6 6 7 7 7 7 6 6 6 5 5 5 6 6 6 6 6 7 7 8 8 8 8 8 8 8 8 8 8 8
10 10 6 5 5 4 4 5 5 4 4 4 5 6 6 7 7 7 7 6 6 6 6 6 6 6 7 7 7 7 8 9 9 9 9 9 9 9 8 8 9 9 9 9
10 7 7 6 4 5 4 4 4 3 4 4 5 6 6 7 7 7 6 7 7 7 8 9 8 8 8 8 8 9 9 10 10 11 10 10 10 10 11 11 11 11 11 11
9 7 7 5 5 4 5 5 5 3 3 4 5 6 6 7 7 7 7 7 7 8 9 9 9 9 9 9 9 10 11 11 12 12 12 12 12 12 12 12 13 13 12 12
10 6 6 5 4 4 5 5 4 4 4 4 5 6 6 7 7 7 8 8 9 9 10 10 11 11 11 10 10 11 13 13 13 12 12 13 13 12 15 15 15 15 15 14
6 5 5 6 5 4 4 4 4 4 4 5 5 6 6 7 7 9 8 9 10 10 11 12 12 13 12 12 13 13 14 14 13 14 14 14 14 14 14 13 15 15 15 15
6 6 7 7 6 6 5 5 5 4 5 5 6 6 7 8 9 9 9 10 10 12 13 13 14 14 14 14 14 14 15 16 14 14 14 14 14 14 14 14 15 14 14 15
7 7 7 6 7 7 7 8 8 8 8 8 7 8 8 10 10 10 11 12 13 13 13 14 15 15 14 14 15 15 15 15 15 14 15 16 15 15 15 15 15 15 13 13
8 8 8 8 9 9 9 8 9 9 9 9 9 10 10 10 11 12 13 13 14 15 15 17 16 16 15 15 16 16 16 18 17 15 15 16 16 16 16 15 15 14 14 13
9 10 10 10 10 10 10 9 10 11 10 11 11 10 11 13 14 14 16 17 17 17 17 17 17 16 16 16 16 16 16 17 19 16 16 17 16 16 16 15 15 14 14 13
7 8 8 8 10 10 10 11 10 11 12 12 14 15 15 17 18 19 19 18 19 19 18 18 17 17 17 17 17 17 18 18 17 18 17 17 18 17 16 15 15 15 14 14
9 9 9 9 10 10 11 13 13 14 14 15 15 17 17 17 17 18 18 19 19 19 19 18 19 18 18 19 18 18 18 18 18 18 18 19 17 16 16 16 15 15 15 14
12 12 13 13 14 15 16 15 15 16 16 16 16 17 18 17 17 18 17 17 17 18 18 19 19 19 20 20 20 18 18 18 18 18 18 18 17 17 16 17 17 15 15 15
15 15 16 16 16 15 15 15 15 15 15 14 15 17 18 18 18 18 18 19 19 18 19 19 19 19 19 19 18 18 18 18 17 18 18 17 17 17 17 16 16 16 15 15
16 16 16 16 16 16 15 15 15 16 17 17 18 18 18 19 19 19 18 18 18 18 18 18 18 20 19 21 18 17 17 18 18 17 17 17 17 17 17 17 17 16 16 16
16 16 16 16 17 17 17 17 17 17 17 17 17 17 17 17 17 18 19 18 18 19 18 18 21 21 22 18 17 17 17 18 17 17 17 17 17 17 17 17 18 18 17 17
16 16 16 16 16 17 18 18 17 18 18 18 18 17 17 17 18 17 18 19 19 18 18 19 19 22 21 17 17 17 17 16 16 16 16 19 17 17 17 18 18 18 18 18
16 16 16 17 17 17 17 17 17 17 17 17 17 17 17 17 16 17 17 18 19 18 17 21 22 22 17 16 16 17 17 16 16 17 17 17 17 17 17 17 19 18 19 19
17 18 18 17 17 17 16 16 17 16 16 17 17 17 17 17 17 17 17 18 18 19 16 16 16 16 16 16 16 17 17 16 16 16 17 17 17 17 18 18 19 19 19 19
18 18 18 18 18 17 17 17 17 17 16 16 16 16 16 16 17 17 17 16 15 16 15 15 15 16 16 16 16 16 16 16 16 17 17 17 17 17 18 19 19 19 19 20

GFSNGP_con_lsi_033.txt.gz
Lid_Strength_Index
8 8 8 8 9 8 9 9 12 10 9 7 6 6 5 4 4 4 4 4 3 3 3 3 3 2 2 2 1 1 1 1 1 1 0 1 1 1 2 4 5 6 8 8
9 8 8 9 8 8 8 8 8 8 9 5 5 4 5 4 4 4 4 4 4 3 3 3 3 2 2 2 2 2 1 1 1 1 1 1 1 3 4 4 5 6 7 6
13 9 9 12 9 8 8 7 7 9 7 5 6 5 5 4 4 4 4 4 4 3 3 2 2 2 3 2 2 2 2 2 2 2 2 2 3 4 5 5 6 7 7 7
13 13 18 9 6 6 7 7 6 6 6 5 5 4 4 4 4 4 4 4 3 3 3 3 3 2 2 2 2 3 3 3 3 3 3 4 4 5 6 6 7 7 7 6
15 14 10 9 7 7 8 8 6 6 5 5 5 5 5 4 3 3 3 3 3 2 3 3 3 3 3 3 4 4 4 4 3 3 4 4 5 5 5 5 6 6 6 6
13 15 17 9 6 5 5 11 5 5 5 5 5 9 6 4 3 3 3 3 3 3 3 3 3 3 4 4 4 4 4 4 3 4 4 5 5 6 6 6 6 6 7 7
14 14 11 7 5 5 12 10 5 5 5 5 6 5 4 4 4 3 3 4 4 3 4 4 3 3 4 4 4 4 4 4 4 4 5 6 6 6 6 6 7 7 7 6
13 15 16 5 6 9 6 4 4 4 4 4 4 4 4 4 4 4 4 4 4 4 4 4 3 4 4 5 4 4 5 5 6 6 6 6 6 7 7 8 8 8 8 8
10 10 6 5 5 4 4 4 4 4 4 4 5 4 4 4 4 4 4 4 4 4 5 4 4 4 5 5 5 6 6 7 8 8 8 8 8 8 8 9 9 10 10 10
9 7 6 5 4 3 3 4 3 3 3 3 4 4 4 4 4 5 4 4 4 5 5 5 5 5 5 6 6 7 8 8 9 9 9 9 9 10 10 11 11 12 12 12
8 6 6 5 4 4 4 3 3 3 3 3 4 4 4 4 4 4 4 5 5 6 6 7 6 7 7 7 7 9 9 10 10 10 11 11 12 12 12 13 14 13 13 13
10 6 6 6 4 3 4 4 4 4 4 3 3 4 4 4 4 5 5 5 6 6 7 7 8 8 8 8 9 10 11 11 11 11 12 12 12 13 15 15 15 15 16 15
7 5 5 4 4 3 4 3 3 3 3 4 3 3 3 4 5 6 6 6 7 7 8 8 9 10 10 10 11 11 12 12 13 13 13 13 13 13 13 15 15 15 16 16
4 5 6 5 5 4 3 3 4 3 3 3 3 3 4 5 6 6 7 7 7 8 9 10 11 13 12 12 13 13 14 15 13 13 13 13 13 14 14 14 15 14 15 16
5 4 5 5 5 5 5 5 5 5 4 5 4 5 5 6 7 7 7 8 9 11 12 14 15 15 14 13 14 14 14 14 14 14 15 15 14 14 14 15 15 15 14 14
5 6 6 6 6 7 7 6 6 6 6 6 7 7 7 7 9 10 11 11 13 15 16 17 16 15 15 15 15 16 17 17 16 15 15 16 15 16 16 15 16 15 15 14
6 7 7 7 7 8 7 7 7 8 7 8 8 8 9 12 14 16 17 16 17 17 17 17 17 17 16 16 16 16 16 17 18 16 16 16 16 16 16 16 16 15 14 14
6 6 6 6 7 8 8 8 8 8 9 10 13 14 16 17 18 18 19 19 19 19 18 18 18 18 17 18 17 17 17 17 17 17 17 17 17 17 16 16 16 15 14 13
7 7 7 8 7 8 9 12 13 14 14 15 15 17 18 18 18 19 19 19 20 20 19 18 18 18 19 19 18 18 18 18 18 18 17 18 17 17 17 16 15 15 14 13
12 12 13 14 13 14 15 15 15 16 16 16 17 18 19 19 18 18 18 18 18 19 18 19 19 19 20 20 20 19 19 18 18 18 18 19 17 17 16 16 15 14 14 13
15 15 15 15 16 15 15 15 15 16 16 16 17 18 18 18 18 18 19 20 19 19 19 19 19 19 19 19 19 18 18 18 18 18 18 18 17 16 15 15 14 14 14 14
16 17 17 17 17 17 16 16 16 17 18 18 18 18 19 19 19 18 17 19 19 18 18 18 19 21 20 20 18 18 18 18 18 18 17 17 16 16 15 15 15 15 15 14
16 17 17 18 18 18 18 17 17 17 17 17 17 18 18 17 17 18 19 18 18 18 18 18 21 21 21 18 17 18 18 18 18 17 16 16 15 16 16 16 16 16 15 15
16 16 17 16 16 17 18 18 17 18 18 17 17 16 17 18 18 18 18 19 19 17 18 18 19 21 21 18 18 18 17 16 16 15 15 16 15 15 16 16 16 15 15 16
16 16 16 16 17 17 17 17 17 17 17 17 17 17 16 16 16 16 17 18 18 17 17 20 21 21 18 17 17 16 16 16 15 16 16 16 16 16 16 16 16 15 16 16
17 17 17 17 17 16 16 16 17 16 16 17 17 16 16 16 16 16 17 17 17 18 17 17 17 17 16 16 16 16 16 16 16 16 16 17 16 16 16 16 16 16 15 15
17 17 17 17 17 17 17 17 17 18 17 16 17 16 16 16 16 16 17 16 16 16 15 15 15 16 16 16 16 16 16 16 16 17 17 17 17 16 16 16 16 16 16 16